{"data":{"norad_id":54122,"epoch":"2026-09-20T01:13:17.911200Z","epoch_age_seconds":64596,"freshness":"FRESH","line1":"1 54122U 22138K   26263.05090175  .00000024  00000+0  26860-4 0  9997","line2":"2 54122  87.9112 286.0692 0002050  86.2140 273.9227 13.19725480189342","mean_motion":13.1972548,"eccentricity":0.000205,"inclination_deg":87.9112,"raan_deg":286.0692,"arg_perigee_deg":86.214,"mean_anomaly_deg":273.9227,"bstar":2.686e-5,"rev_number":18934,"period_min":109.11360141353,"perigee_km":1184.2181172695,"apogee_km":1187.3193186139,"semimajor_km":7563.9057179417,"source":"CELESTRAK","updated_at":"2026-09-20T09:00:44.716767Z"}}